sat.trackr.live / text

‹ back to catalog

STARLINK-37320

NORAD 68711 · 2026-081N

PAYLOAD ACTIVE UNKNOWN

§ Identity

Operator
Country
US
Launch date
2026-04-14
Launch site
AFETR
Launch vehicle
Mass (kg)
RCS (m²)

Purposes: comms

External: N2YO · Heavens-Above · Gunter

§ Orbital elements

Epoch: 2026-09-19T13:30:15.875136Z

Period
93.85 min
Inclination
53.1557°
Eccentricity
0.0003733
Mean motion
15.34401716 rev/d
Perigee alt
460.1 km
Apogee alt
465.3 km
Semi-major
6,840.8 km
B*
3.0918e-4
RAAN
210.1683°
Arg perigee
77.3899°
Mean anomaly
282.7521°
Rev number
2,447

§ Raw data

STARLINK-373201 68711U 26081N   26262.56268374  .00010085  00000+0  30918-3 0  99962 68711  53.1557 210.1683 0003733  77.3899 282.7521 15.34401716 24477

JSON: /api/v1/satellites/68711 · /tle

For live sub-satellite position, see the globe view (requires WebGL).

§ Visibility from observer

Set your observer location to see the next 7 days of passes ≥ 10°. The values pass through the URL so the page stays shareable.

No JS? Fill the form by hand. The geolocation button needs JavaScript.